Home   Weather   Dubuque   Past weeks
Flag for USA

Past Weather in Dubuque, Iowa, USA — Yesterday and Last 2 Weeks

Now
38 °F

Clear.


Feels Like: 28 °F
Forecast: 43 / 32 °F
Wind: 20 mph from Northwest

Location: Dubuque Regional Airport

Current Time: Apr 9, 2020 at 3:34:03 am

Latest Report: Apr 9, 2020 at 2:53 am


Visibility: 10 mi

Pressure: 29.87 "Hg

Humidity: 58%

Dew Point: 24 °F

Location of DubuqueLocation

Past Weather in Dubuque — Graph

°F

Dubuque Temperature Yesterday

Maximum temperature yesterday: 65 °F (at 11:53 am)
Minimum temperature yesterday: 40 °F (at 6:53 am)
Average temperature yesterday: 49 °F

High & Low Weather Summary for the Past Weeks

 TemperatureHumidityPressure
High76 °F (Apr 7, 5:53 pm)100% (Mar 25, 4:36 am)30.23 "Hg (Mar 25, 4:36 am)
Low27 °F (Apr 1, 5:53 am)36% (Apr 4, 4:53 pm)29.30 "Hg (Mar 29, 3:19 am)
Average46 °F81%29.89 "Hg
* Reported Mar 25 1:53 am — Apr 9 1:53 am, Dubuque. Weather by CustomWeather, © 2020

Note: Actual official high and low records may vary slightly from our data, if they occured in-between our weather recording intervals... More about our weather records

Dubuque Weather History for the Previous 24 Hours

Scroll right to see more
 ConditionsComfort  
Time TempWeatherWind HumidityBarometerVisibility
1:53 am
Thu, Apr 9
40 °FClear.22 mph55%29.85 "Hg10 mi
12:53 am42 °FClear.22 mph53%29.84 "Hg10 mi
11:53 pm
Wed, Apr 8
43 °FClear.20 mph51%29.83 "Hg10 mi
10:53 pm44 °FClear.17 mph51%29.83 "Hg10 mi
9:53 pm45 °FClear.16 mph60%29.82 "Hg10 mi
8:53 pm46 °FClear.13 mph66%29.81 "Hg10 mi
7:53 pm48 °FClear.14 mph77%29.78 "Hg10 mi
6:53 pm49 °FPassing clouds.10 mph77%29.78 "Hg10 mi
5:53 pm50 °FPartly sunny.15 mph74%29.78 "Hg10 mi
4:53 pm51 °FLight rain. Mostly cloudy.16 mph89%29.79 "Hg10 mi
3:53 pm50 °FLight rain. Fog.15 mph86%29.82 "Hg5 mi
3:22 pm52 °FFog.15 mph86%29.79 "Hg5 mi
3:13 pm52 °FThundershowers. Fog.14 mph86%29.79 "Hg5 mi
1:53 pm60 °FBroken clouds.22 mph62%29.79 "Hg10 mi
12:53 pm62 °FSunny.16 mph62%29.77 "Hg10 mi
11:53 am65 °FPartly sunny.12 mph66%29.78 "Hg10 mi
10:53 am60 °FScattered clouds.7 mph78%29.78 "Hg8 mi
9:53 am55 °FFog.10 mph90%29.76 "Hg6 mi
8:53 am54 °FFog.No wind100%29.76 "Hg4 mi
8:19 am52 °FFog.No wind100%29.77 "Hg3 mi
8:02 am49 °FFog.No wind100%29.77 "Hg1 mi
7:55 am48 °FDense fog.No wind100%29.76 "Hg1 mi
7:29 am44 °FFog.No wind100%29.76 "Hg0 mi
6:53 am40 °FDense fog.3 mph100%29.74 "Hg0 mi
6:27 am42 °FDense fog.No wind96%29.73 "Hg0 mi
6:17 am42 °FDense fog.No wind100%29.73 "Hg1 mi
5:53 am41 °FFog.No wind100%29.72 "Hg0 mi
5:19 am42 °FFog.No wind100%29.72 "Hg1 mi
4:53 am42 °FFog.No wind96%29.72 "Hg1 mi
4:24 am43 °FFog.No wind100%29.73 "Hg0 mi
3:58 am45 °FFog.No wind97%29.73 "Hg1 mi
3:41 am44 °FFog.No wind100%29.73 "Hg1 mi
3:37 am44 °FFog.No wind100%29.73 "Hg1 mi
3:07 am46 °FFog.No wind93%29.74 "Hg1 mi
Weather by CustomWeather, © 2020

See weather overview

Advertising